If you wish to contribute or participate in the discussions about articles you are invited to join SKYbrary as a registered user

EBCI

From SKYbrary Wiki

Jump to: navigation, search
Airport
Code EBCI
Name Brussels South Charleroi Airport
Region Europe
Territory Belgium BE.gif
Location Charleroi
Elevation

187.147202 m614 ft

Coordinates 50° 27' 46" N, 4° 27' 42" E
All Airports
in EB
EBAW, EBBR, EBCI, EBFS, EBLG, EBOS
Runways
Designator Length Width Surface
7/25 2550 m8,366.142 ft 45 m147.638 ft ASP


METAR
Observation EBCI 211950Z 32005KT 290V350 CAVOK 13/10 Q1022 NOSIG
Station Charleroi / Gosselies
Elevation 192 metres
Date/Time 21 September 2014 19:50:00
Wind direction 320°
Wind speed 05 kts
Clouds clouds and visibility OK
Clouds code CAVOK
Temperature 13°C
Dew point 10°C
Humidity 82%
QNH 1022 hPa
Weather condition n/a


Charleroi Brussels South Airport

ICAO: EBCI IATA: CRL

Description

Charleroi airport is an international airport located in Gosselies, 46 km24.838 nm
46,000 m
150,918.635 ft
south of Brussels.

Climatology

Temperate Marine climate/Oceanic climate (Köppen climate classification Cfb). Moderately cool summer and comparatively warm winter with a temperature range of only 14°C287.15 K
57.2 °F
516.87 °R
. Prevailing south-westerly winds from the Atlantic Ocean.

Maps

Terrain

Loading map...

Airport Layout

Loading map...


Accidents & Serious Incidents at or in vicinity of EBCI

None on SKYbrary

Personal tools